Regional Weather Roundup
Issued by NWS

Home | Current Version | Previous Version | Text Only | Print | Product List | Glossary Off
Versions: 1 2 3 4 5 6 7 8 9 10 11 12 13 14 15 16 17 18 19 20 21 22 23 24 25 26 27 28 29 30 31 32 33 34 35 36 37 38 39 40 41 42 43 44 45 46 47 48 49 50

000
ASUS43 KFSD 312210
RWRSD

WEATHER ROUNDUP FOR SOUTH DAKOTA
NATIONAL WEATHER SERVICE SIOUX FALLS SD
500 PM CDT FRI JUL 31 2015

NOTE: "FAIR" INDICATES FEW OR NO CLOUDS BELOW 12,000 FEET WITH NO
SIGNIFICANT WEATHER AND/OR OBSTRUCTIONS TO VISIBILITY.


SDZ001>005-009-010-012>017-312300-
NORTHWEST AND NORTH CENTRAL SOUTH DAKOTA

CITY           SKY/WX    TMP DP  RH WIND       PRES   REMARKS
BUFFALO          N/A     91  39  16 S8        30.06F
FAITH            N/A     91  38  15 N8        30.12F
MOBRIDGE       SUNNY     91  50  24 NW12      30.05F
$$

SDZ012>016-024>037-041>051-057-063-072>074-312300-
SOUTHWEST AND SOUTH CENTRAL SOUTH DAKOTA

CITY           SKY/WX    TMP DP  RH WIND       PRES   REMARKS
RAPID CTY ARPT SUNNY     87  53  31 NE9       30.15F
PIERRE         SUNNY     92  46  20 N9        30.07F
CUSTER         PTSUNNY   78  49  35 E10       30.30F
ELLSWORTH AFB  SUNNY     87  49  26 E8        30.15F
PHILIP         SUNNY     90  53  28 SE7       30.08F
PINE RIDGE     SUNNY     92  48  22 MISG      30.13F
SPEARFISH      FAIR      84  50  30 E12       30.19F
WINNER         FAIR      92  55  28 E3        30.08F
$$

SDZ004>011-016>023-039-040-312300-
NORTHEAST SOUTH DAKOTA

CITY           SKY/WX    TMP DP  RH WIND       PRES   REMARKS
ABERDEEN       MOSUNNY   85  58  39 SW9       30.04F
WATERTOWN      SUNNY     83  56  39 W8        30.08F
BROOKINGS      SUNNY     82  55  39 W8        30.10F
SISSETON         N/A     84  58  40 NW10      30.03F
$$

SDZ017-020-022-023-036>040-048>070-312300-
SOUTHEAST SOUTH DAKOTA

CITY           SKY/WX    TMP DP  RH WIND       PRES   REMARKS
SIOUX FALLS    MOSUNNY   86  59  39 N6        30.07F
HURON          SUNNY     86  53  32 W8        30.06F
CHAMBERLAIN    SUNNY     87  57  35 CALM      30.08F
MITCHELL       SUNNY     87  56  34 SE5       30.07F
YANKTON        SUNNY     84  66  54 NE8       30.05F
$$

ABBREVIATIONS USED IN REMARKS
   TC - TEMPERATURE IN CELSIUS
  WCI - WIND CHILL INDEX
   HX - HEAT INDEX
  VSB - VISIBILITY



USA.gov is the U.S. government's official web portal to all federal, state and local government web resources and services.